CAPE
0 0 0 0 0 0 0 1 0 0 0 0 0 0 0 1 0 0 0 0 1 1 2 4 4 6 5 7 6 5 5 4 3 3 2 3 3 3 3 1 0 0 0 0
0 0 0 0 0 0 0 0 0 0 0 0 1 2 0 1 1 0 0 0 1 1 2 2 4 3 2 2 3 2 2 2 2 3 3 4 3 3 0 0 0 0 0 0
0 0 0 0 0 0 0 0 0 0 1 1 0 0 0 1 1 0 0 0 0 1 2 2 3 2 2 4 2 4 2 3 4 4 2 3 0 0 0 0 0 0 0 0
0 0 0 0 0 0 0 0 0 0 0 1 1 1 0 0 1 1 0 0 0 1 1 1 1 2 1 2 2 3 3 3 2 2 2 0 0 0 0 0 0 0 0 0
0 0 0 0 0 0 0 0 0 0 0 0 0 0 0 1 0 0 0 0 1 0 0 1 1 1 2 2 3 3 2 2 3 2 0 0 0 0 0 0 0 0 0 0
0 0 0 0 0 0 0 0 0 0 0 0 1 0 0 0 2 1 0 0 1 1 0 0 1 1 2 2 3 2 3 2 0 0 0 0 0 0 0 0 0 0 0 0
0 0 0 0 0 0 0 0 0 0 0 0 1 1 1 1 1 1 0 0 0 0 0 1 1 2 2 2 1 2 1 0 0 0 0 0 0 0 0 0 0 0 0 0
0 0 0 0 0 0 0 0 0 0 0 0 0 1 1 1 1 0 0 0 0 0 1 1 1 0 1 0 0 0 0 0 0 0 0 0 0 0 0 0 0 0 0 0
0 0 0 0 0 0 0 0 0 0 0 0 0 2 2 1 1 1 0 0 0 0 0 0 0 0 0 0 0 0 0 0 0 0 0 0 0 0 0 0 0 0 0 0
0 0 0 0 0 0 0 0 0 0 0 0 1 1 1 1 1 0 1 1 1 0 0 0 0 0 0 0 0 0 0 0 0 0 0 0 0 0 0 0 0 0 0 0
0 0 0 0 0 0 0 0 0 0 0 0 1 1 1 1 1 0 0 0 0 0 0 0 0 0 0 0 0 0 0 0 0 0 0 0 0 0 0 0 0 0 0 0
0 0 0 0 0 0 0 0 0 0 0 0 0 0 0 1 2 1 0 0 0 0 0 0 0 0 0 0 0 0 0 0 0 0 0 0 0 0 0 0 0 0 0 0
0 0 0 0 0 0 0 0 0 0 0 0 0 0 0 0 2 1 0 0 0 0 0 0 0 0 0 0 0 0 0 0 0 0 0 0 0 0 0 0 1 2 2 1
0 0 0 0 0 0 0 0 0 0 0 0 0 0 0 0 1 0 1 0 0 0 0 0 0 0 0 0 0 0 0 0 0 0 0 0 0 0 0 0 0 0 0 0
0 0 0 0 0 0 0 0 0 0 0 0 0 0 0 0 0 0 1 0 0 0 0 0 0 0 0 0 0 0 0 0 0 0 0 0 0 0 0 0 0 0 0 0
0 0 0 0 0 0 0 0 0 0 0 0 0 0 0 0 0 0 0 0 0 0 0 0 0 0 0 0 0 0 0 0 0 0 0 0 0 0 0 0 0 0 0 0
0 0 0 0 0 0 0 0 0 0 0 0 0 0 0 0 0 0 0 0 0 0 0 0 0 0 0 0 0 0 0 0 0 0 0 0 0 0 0 0 0 0 0 0
0 0 0 0 0 0 0 0 0 0 0 0 0 0 0 0 0 0 0 0 0 0 0 0 0 0 0 0 0 0 0 0 0 0 0 0 0 0 0 0 0 0 0 0
0 0 0 0 0 0 0 0 0 0 0 0 0 0 0 0 0 0 0 0 0 0 0 0 0 0 0 0 0 0 0 0 0 0 0 0 0 0 0 0 0 0 0 0
0 0 0 0 0 0 0 0 0 0 0 0 0 0 0 0 0 0 0 0 0 0 0 0 0 0 0 0 0 0 0 0 0 0 0 0 0 0 0 0 0 0 0 0
0 0 0 0 0 0 0 0 0 0 0 0 0 0 0 0 0 0 0 0 0 0 0 0 0 0 0 0 0 0 0 0 0 0 0 0 0 0 0 0 0 0 0 0
0 0 0 0 0 0 0 0 0 0 0 0 0 0 0 0 0 0 0 0 0 0 0 0 0 0 0 0 0 0 0 0 0 0 0 0 0 0 0 0 0 0 0 0
0 0 0 0 0 0 0 0 0 0 0 0 0 0 0 0 0 0 0 0 0 0 0 0 0 0 0 0 0 0 0 0 0 0 0 0 0 0 0 0 0 0 0 0
0 0 0 0 0 0 0 0 0 0 0 0 0 0 0 0 0 0 0 0 0 0 0 0 0 0 0 0 0 0 0 0 0 0 0 0 0 0 0 0 0 0 0 0
0 0 0 0 0 0 0 0 0 0 0 0 0 0 0 0 0 0 0 0 0 0 0 0 0 0 0 0 0 0 0 0 0 0 0 0 0 0 0 0 0 0 0 0
0 0 0 0 0 0 0 0 0 0 0 0 0 0 0 0 0 0 0 0 0 0 0 0 0 0 0 0 0 0 0 0 0 0 0 0 0 0 0 0 0 0 0 0
0 0 0 0 0 0 0 0 0 0 0 0 0 0 0 0 0 0 0 0 0 0 0 0 0 0 0 0 0 0 0 0 0 0 0 0 0 0 0 0 0 0 0 0
CIN
-0 -0 -0 -0 -0 -0 -0 -0 -0 -0 -0 -0 -0 -0 -0 -0 -0 -0 -0 -0 -0 -0 -0 -0 -0 -0 -0 -0 -0 -0 -0 -0 -0 -0 -0 -0 -0 -0 -0 -0 -0 -0 -0 -0
-0 -0 -0 -0 -0 -0 -0 -0 -0 -0 -0 -0 -0 -0 -0 -0 -0 -0 -0 -0 -0 -0 -0 -0 -0 -0 -0 -0 -0 -0 -0 -0 -0 -0 -0 -0 -0 -0 -0 -0 -0 -0 -0 -0
-0 -0 -0 -0 -0 -0 -0 -0 -0 -0 -0 -0 -0 -0 -0 -0 -0 -0 -0 -0 -0 -0 -0 -0 -0 -0 -0 -0 -0 -0 -0 -0 -0 -0 -0 -0 -0 -0 -0 -0 -0 -0 -0 -0
-0 -0 -0 -0 -0 -0 -0 -0 -0 -0 -0 -0 -0 -0 -0 -0 -0 -0 -0 -0 -0 -0 -0 -0 -0 -0 -0 -0 -0 -0 -0 -0 -0 -0 -0 -0 -0 -0 -0 -0 -0 -0 -0 -0
-0 -0 -0 -0 -0 -0 -0 -0 -0 -0 -0 -0 -0 -0 -0 -0 -0 -0 -0 -0 -0 -0 -0 -0 -0 -0 -0 -0 -0 -0 -0 -0 -0 -0 -0 -0 -0 -0 -0 -0 -0 -0 -0 -0
-0 -0 -0 -0 -0 -0 -0 -0 -0 -0 -0 -0 -0 -0 -0 -0 -0 -0 -0 -0 -0 -0 -0 -0 -0 -0 -0 -0 -0 -0 -0 -0 -0 -0 -0 -0 -0 -0 -0 -0 -0 -0 -0 -0
-0 -0 -0 -0 -0 -0 -0 -0 -0 -0 -0 -0 -0 -0 -0 -0 -0 -0 -0 -0 -0 -0 -0 -0 -0 -0 -0 -0 -0 -0 -0 -0 -0 -0 -0 -0 -0 -0 -0 -0 -0 -0 -0 -0
-0 -0 -0 -0 -0 -0 -0 -0 -0 -0 -0 -0 -0 -0 -0 -0 -0 -0 -0 -0 -0 -0 -0 -0 -0 -0 -0 -0 -0 -0 -0 -0 -0 -0 -0 -0 -0 -0 -0 -0 -0 -0 -0 -0
-0 -0 -0 -0 -0 -0 -0 -0 -0 -0 -0 -0 -0 -0 -0 -0 -0 -0 -0 -0 -0 -0 -0 -0 -0 -0 -0 -0 -0 -0 -0 -0 -0 -0 -0 -0 -0 -0 -0 -0 -0 -0 -0 -0
-0 -0 -0 -0 -0 -0 -0 -0 -0 -0 -0 -0 -0 -0 -0 -0 -0 -0 -0 -0 -0 -0 -0 -0 -0 -0 -0 -0 -0 -0 -0 -0 -0 -0 -0 -0 -0 -0 -0 -0 -0 -0 -0 -0
-0 -0 -0 -0 -0 -0 -0 -0 -0 -0 -0 -0 -0 -0 -0 -0 -0 -0 -0 -0 -0 -0 -0 -0 -0 -0 -0 -0 -0 -0 -0 -0 -0 -0 -0 -0 -0 -0 -0 -0 -0 -0 -0 -0
-0 -0 -0 -0 -0 -0 -0 -0 -0 -0 -0 -0 -0 -0 -0 -0 -0 -0 -0 -0 -0 -0 -0 -0 -0 -0 -0 -0 -0 -0 -0 -0 -0 -0 -0 -0 -0 -0 -0 -0 -0 -0 -0 -0
-0 -0 -0 -0 -0 -0 -0 -0 -0 -0 -0 -0 -0 -0 -0 -0 -0 -0 -0 -0 -0 -0 -0 -0 -0 -0 -0 -0 -0 -0 -0 -0 -0 -0 -0 -0 -0 -0 -0 -0 -0 -0 -0 -0
-0 -0 -0 -0 -0 -0 -0 -0 -0 -0 -0 -0 -0 -0 -0 -0 -0 -0 -0 -0 -0 -0 -0 -0 -0 -0 -0 -0 -0 -0 -0 -0 -0 -0 -0 -0 -0 -0 -0 -0 -0 -0 -0 -0
-0 -0 -0 -0 -0 -0 -0 -0 -0 -0 -0 -0 -0 -0 -0 -0 -0 -0 -0 -0 -0 -0 -0 -0 -0 -0 -0 -0 -0 -0 -0 -0 -0 -0 -0 -0 -0 -0 -0 -0 -0 -0 -0 -0
-0 -0 -0 -0 -0 -0 -0 -0 -0 -0 -0 -0 -0 -0 -0 -0 -0 -0 -0 -0 -0 -0 -0 -0 -0 -0 -0 -0 -0 -0 -0 -0 -0 -0 -0 -0 -0 -0 -0 -0 -0 -0 -0 -0
-0 -0 -0 -0 -0 -0 -0 -0 -0 -0 -0 -0 -0 -0 -0 -0 -0 -0 -0 -0 -0 -0 -0 -0 -0 -0 -0 -0 -0 -0 -0 -0 -0 -0 -0 -0 -0 -0 -0 -0 -0 -0 -0 -0
-0 -0 -0 -0 -0 -0 -0 -0 -0 -0 -0 -0 -0 -0 -0 -0 -0 -0 -0 -0 -0 -0 -0 -0 -0 -0 -0 -0 -0 -0 -0 -0 -0 -0 -0 -0 -0 -0 -0 -0 -0 -0 -0 -0
-0 -0 -0 -0 -0 -0 -0 -0 -0 -0 -0 -0 -0 -0 -0 -0 -0 -0 -0 -0 -0 -0 -0 -0 -0 -0 -0 -0 -0 -0 -0 -0 -0 -0 -0 -0 -0 -0 -0 -0 -0 -0 -0 -0
-0 -0 -0 -0 -0 -0 -0 -0 -0 -0 -0 -0 -0 -0 -0 -0 -0 -0 -0 -0 -0 -0 -0 -0 -0 -0 -0 -0 -0 -0 -0 -0 -0 -0 -0 -0 -0 -0 -0 -0 -0 -0 -0 -0
-0 -0 -0 -0 -0 -0 -0 -0 -0 -0 -0 -0 -0 -0 -0 -0 -0 -0 -0 -0 -0 -0 -0 -0 -0 -0 -0 -0 -0 -0 -0 -0 -0 -0 -0 -0 -0 -0 -0 -0 -0 -0 -0 -0
-0 -0 -0 -0 -0 -0 -0 -0 -0 -0 -0 -0 -0 -0 -0 -0 -0 -0 -0 -0 -0 -0 -0 -0 -0 -0 -0 -0 -0 -0 -0 -0 -0 -0 -0 -0 -0 -0 -0 -0 -0 -0 -0 -0
-0 -0 -0 -0 -0 -0 -0 -0 -0 -0 -0 -0 -0 -0 -0 -0 -0 -0 -0 -0 -0 -0 -0 -0 -0 -0 -0 -0 -0 -0 -0 -0 -0 -0 -0 -0 -0 -0 -0 -0 -0 -0 -0 -0
-0 -0 -0 -0 -0 -0 -0 -0 -0 -0 -0 -0 -0 -0 -0 -0 -0 -0 -0 -0 -0 -0 -0 -0 -0 -0 -0 -0 -0 -0 -0 -0 -0 -0 -0 -0 -0 -0 -0 -0 -0 -0 -0 -0
-0 -0 -0 -0 -0 -0 -0 -0 -0 -0 -0 -0 -0 -0 -0 -0 -0 -0 -0 -0 -0 -0 -0 -0 -0 -0 -0 -0 -0 -0 -0 -0 -0 -0 -0 -0 -0 -0 -0 -0 -0 -0 -0 -0
-0 -0 -0 -0 -0 -0 -0 -0 -0 -0 -0 -0 -0 -0 -0 -0 -0 -0 -0 -0 -0 -0 -0 -0 -0 -0 -0 -0 -0 -0 -0 -0 -0 -0 -0 -0 -0 -0 -0 -0 -0 -0 -0 -0
-0 -0 -0 -0 -0 -0 -0 -0 -0 -0 -0 -0 -0 -0 -0 -0 -0 -0 -0 -0 -0 -0 -0 -0 -0 -0 -0 -0 -0 -0 -0 -0 -0 -0 -0 -0 -0 -0 -0 -0 -0 -0 -0 -0
Wind_Speed
9 21 19 17 12 12 11 8 3 12 16 21 26 28 28 34 34 34 32 25 19 15 12 12 11 9 11 11 12 13 13 11 12 11 12 10 10 9 7 7 8 7 9 10
18 20 19 16 11 4 6 2 4 8 13 20 23 17 23 35 32 26 21 13 9 7 4 6 9 8 9 8 11 11 10 11 12 12 13 14 11 12 9 9 8 11 13 11
19 22 21 12 5 3 2 3 5 10 16 20 24 20 23 21 10 7 9 6 4 4 4 6 5 13 7 7 10 11 11 12 14 16 15 15 15 14 12 12 13 12 11 12
21 21 15 11 4 0 3 1 6 12 14 19 18 12 18 22 9 8 3 1 6 4 3 3 5 7 9 12 13 15 14 18 16 17 17 15 13 16 15 13 12 13 13 15
18 20 20 13 6 1 8 4 4 14 13 14 15 15 22 16 15 5 12 10 2 3 5 6 8 10 12 14 18 19 19 18 18 17 18 19 19 18 13 13 14 16 19 18
19 18 16 12 5 10 15 4 12 17 14 15 12 20 15 14 11 10 8 6 7 7 10 11 9 16 18 18 20 20 19 19 19 19 19 18 16 15 19 20 19 18 17 17
22 21 19 13 8 17 4 3 16 14 12 11 7 13 10 15 19 18 11 13 13 14 15 13 15 19 21 20 22 21 17 16 15 14 17 17 22 22 21 19 18 17 16 17
18 20 18 8 16 7 3 2 7 10 11 9 4 5 8 10 14 19 21 20 19 15 13 12 13 16 22 18 13 12 13 15 18 23 25 21 22 20 19 17 16 16 17 18
23 21 15 9 10 4 10 3 4 4 9 9 4 1 5 10 13 16 19 20 17 17 16 13 13 11 13 11 15 27 29 26 22 20 15 17 19 18 16 16 17 17 17 17
23 20 17 13 12 11 9 9 6 5 5 4 6 8 8 15 21 24 23 18 23 11 11 22 32 35 30 28 24 21 22 17 17 18 20 17 16 16 17 17 17 16 15 16
25 25 24 22 18 11 9 12 11 8 9 9 13 18 23 24 26 27 28 29 29 28 27 24 18 15 12 13 17 17 16 17 19 18 17 17 16 16 16 14 14 14 15 15
20 17 18 17 16 15 14 14 11 11 14 14 18 21 24 26 25 25 25 25 24 22 20 20 19 16 13 16 17 18 17 18 18 17 16 15 16 16 16 16 16 15 14 14
14 20 19 17 15 16 15 14 13 12 14 16 18 20 22 23 23 22 22 21 21 20 19 18 17 16 15 10 12 13 15 16 15 15 15 15 15 15 14 15 15 15 14 15
18 21 20 20 16 18 15 14 14 14 15 16 17 19 20 21 21 21 20 19 19 18 17 16 15 14 11 10 10 10 10 12 13 13 13 12 12 11 12 12 11 13 14 15
21 22 21 19 19 18 16 14 12 12 13 15 16 17 17 18 19 19 18 18 17 16 15 15 14 11 9 8 9 9 10 10 9 9 9 9 9 10 10 10 10 11 13 15
22 22 20 20 19 17 16 14 12 11 12 13 15 16 16 16 16 16 15 15 14 13 13 12 11 10 9 8 8 8 8 7 7 7 7 7 8 8 8 9 10 11 13 16
22 21 20 19 18 17 15 13 11 10 11 11 12 12 12 12 13 13 13 13 13 13 12 11 11 10 10 10 9 9 8 9 9 8 7 7 7 7 8 9 10 12 14 16
19 18 18 17 16 16 14 12 11 13 13 14 14 14 14 13 13 13 13 13 12 12 11 11 11 10 10 9 9 9 9 9 9 8 9 9 8 9 9 10 11 12 15 17
16 15 15 15 13 13 13 13 13 13 14 14 14 14 13 13 13 13 12 12 11 10 10 11 11 10 10 9 9 9 9 10 10 10 10 10 10 10 11 11 12 14 16 18
13 12 12 12 13 13 13 13 13 13 13 13 12 12 12 11 11 11 10 10 10 11 11 11 11 11 10 10 10 11 10 9 9 9 10 10 11 12 12 14 14 16 17 19
13 11 11 11 11 12 12 12 12 12 12 11 11 10 10 10 10 10 9 9 8 9 10 10 11 11 10 10 10 10 10 9 9 8 8 10 12 12 13 15 16 17 19 21
11 11 11 10 11 11 11 11 11 11 11 10 10 10 10 9 8 8 8 9 9 8 9 9 9 9 9 9 9 9 9 9 9 9 10 11 11 12 14 16 17 19 21 23
13 12 10 10 11 11 11 11 11 11 11 11 11 11 10 10 9 8 7 7 8 7 9 9 10 10 9 9 9 8 8 8 9 9 10 11 12 13 15 17 18 20 22 24
13 12 11 11 12 13 13 13 12 12 11 11 11 11 11 10 9 7 9 10 8 7 7 8 8 8 7 7 7 6 7 8 9 10 10 11 12 14 16 17 19 21 23 26
16 15 13 16 17 15 14 15 15 14 13 12 13 13 12 11 9 8 9 9 9 8 8 7 7 7 6 6 5 4 5 6 7 8 10 11 13 14 16 18 20 23 25 27
20 20 19 17 14 15 16 17 16 17 17 17 15 15 14 13 11 10 10 9 9 8 7 7 7 6 5 5 5 5 6 7 8 9 10 12 14 16 18 20 23 24 26 29
15 16 16 16 14 14 15 14 14 15 15 15 15 15 14 12 11 10 10 9 8 7 6 6 6 5 4 4 4 5 7 8 10 11 12 14 16 17 20 22 24 26 28 31
Wind_Direction
248 248 249 242 252 277 292 281 30 313 320 326 329 318 310 312 312 318 322 307 301 277 261 249 242 233 214 202 195 190 188 193 180 170 163 152 165 139 122 121 102 99 91 83
266 275 268 247 243 249 297 20 355 335 332 343 340 345 324 326 326 319 315 299 271 267 288 241 225 210 188 184 160 159 158 154 159 145 146 139 140 124 110 107 106 98 89 79
260 282 274 227 166 257 302 45 331 347 330 353 342 334 335 334 341 75 306 294 286 302 238 212 194 191 158 174 142 144 138 136 138 132 126 127 119 108 110 103 98 89 72 60
263 287 233 213 139 131 87 312 66 331 344 14 4 360 344 343 8 92 146 278 178 191 183 167 146 152 104 109 116 124 123 119 127 120 120 117 116 107 103 93 82 73 63 64
260 267 251 219 135 115 93 101 322 326 335 360 13 59 65 6 4 46 122 148 82 50 156 97 136 109 99 113 100 113 112 120 116 116 112 109 104 98 91 83 76 70 77 73
268 255 230 216 130 72 80 139 316 320 323 339 14 12 54 53 57 61 46 77 50 117 71 76 112 85 101 109 103 103 109 112 106 103 100 100 96 91 86 85 81 77 66 54
246 250 235 209 105 60 187 222 308 311 311 330 16 74 79 85 92 98 76 64 71 86 82 97 91 90 89 93 93 96 105 102 101 100 93 89 89 87 85 81 77 67 53 45
260 244 233 53 61 178 161 114 284 296 300 312 329 76 91 99 103 110 114 117 116 104 89 96 98 99 85 91 113 110 108 95 87 87 91 86 86 82 81 75 63 56 55 49
238 238 193 140 218 136 100 133 251 259 288 295 291 108 111 119 120 121 127 131 132 129 126 126 133 120 115 134 86 88 90 88 83 80 73 76 82 80 70 68 67 68 65 53
262 243 206 187 145 114 117 102 169 194 238 213 154 137 131 120 115 116 123 137 134 145 102 131 123 95 85 89 84 83 84 77 76 78 81 70 66 69 75 78 73 67 60 50
229 232 228 221 210 189 141 129 130 159 130 131 128 106 94 98 98 98 93 92 90 84 78 70 61 61 63 69 77 76 74 77 80 75 73 69 65 65 66 56 73 66 56 53
214 194 184 180 134 109 107 126 146 124 112 117 107 93 85 76 83 82 79 78 73 70 67 67 68 63 59 71 77 82 79 81 85 80 68 64 63 58 47 49 47 47 47 45
155 191 183 162 131 135 126 136 126 121 107 101 100 94 82 71 65 63 64 71 75 77 74 70 67 68 65 48 62 70 81 85 80 80 84 78 72 69 62 45 37 40 43 37
161 182 188 169 136 150 137 126 118 102 100 93 87 82 77 65 64 60 63 66 73 76 72 73 66 66 50 50 54 59 61 76 86 88 85 78 73 66 58 54 51 38 29 25
162 169 178 160 155 156 148 130 119 106 89 75 80 83 80 66 63 59 60 61 62 65 66 71 68 43 24 36 51 61 73 76 71 68 69 66 56 48 45 44 40 32 19 15
150 156 159 164 163 153 149 145 136 122 102 94 97 94 84 70 61 53 49 52 59 63 63 60 50 19 4 8 10 24 28 33 29 31 38 39 35 35 31 28 23 18 11 7
125 143 151 160 159 151 146 136 127 115 98 95 97 85 75 62 50 44 43 45 50 50 47 44 37 20 7 358 358 359 358 355 357 2 7 6 13 19 17 14 11 8 4 3
128 130 144 146 149 156 152 139 112 101 103 111 104 100 103 94 88 80 73 65 61 55 45 33 26 14 10 8 7 358 349 350 353 353 351 351 355 360 2 2 2 360 358 356
138 116 103 109 108 115 121 114 103 94 93 99 99 103 104 100 93 87 76 71 69 64 54 41 29 25 18 17 13 10 356 349 344 343 343 345 346 349 352 352 353 353 351 349
123 105 91 87 84 91 94 92 91 90 94 96 91 92 96 93 81 71 61 61 59 34 37 28 23 17 14 10 8 356 354 352 348 345 340 339 341 342 344 344 345 346 346 346
129 113 99 91 85 77 82 84 84 87 93 92 93 93 85 74 68 64 60 55 48 38 31 25 17 7 11 10 1 353 349 347 347 346 342 338 338 339 339 338 341 342 342 343
125 122 109 93 87 79 77 79 79 82 89 89 81 81 81 79 77 70 46 31 30 31 25 18 13 11 6 7 3 355 350 344 341 341 340 339 338 337 336 337 338 339 339 339
131 124 104 101 98 86 81 89 95 101 104 106 104 106 105 99 92 76 57 36 30 30 16 8 4 4 4 4 5 4 357 348 342 339 339 339 338 338 337 336 336 336 336 337
130 124 115 100 97 107 114 116 110 108 105 104 109 110 105 95 98 96 55 50 62 53 40 32 26 22 22 20 18 13 6 354 346 343 342 341 339 337 335 334 334 335 335 336
139 134 124 131 137 130 121 122 119 117 117 118 123 126 123 107 93 96 86 75 73 64 57 57 57 57 54 50 48 38 18 2 353 348 342 338 336 335 334 334 333 334 334 335
146 148 146 140 129 126 129 126 129 133 136 139 140 139 137 138 129 108 107 100 99 95 90 85 79 73 67 56 39 23 11 1 353 346 340 337 335 334 333 333 333 333 334 334
133 136 136 140 134 131 132 132 130 136 137 138 141 143 141 134 132 124 110 108 109 105 98 93 86 83 77 59 32 11 0 352 346 341 338 336 335 333 332 332 332 333 333 334